Year,Month,Day,Hour,Minute,Value (Times are PST for temperature in C)
2014,09,15,00,00,13.50
2014,09,15,00,01,13.40
2014,09,15,00,02,13.40
2014,09,15,00,03,13.40
2014,09,15,00,04,13.40
2014,09,15,00,05,13.40
2014,09,15,00,06,13.40
2014,09,15,00,07,13.40
2014,09,15,00,08,13.40
2014,09,15,00,09,13.40
2014,09,15,00,10,13.40
2014,09,15,00,11,13.40
2014,09,15,00,12,13.40
2014,09,15,00,13,13.40
2014,09,15,00,14,13.40
2014,09,15,00,15,13.40
2014,09,15,00,16,13.40
2014,09,15,00,17,13.40
2014,09,15,00,18,13.40
2014,09,15,00,19,13.40
2014,09,15,00,20,13.40
2014,09,15,00,21,13.40
2014,09,15,00,22,13.40
2014,09,15,00,23,13.40
2014,09,15,00,24,13.40
2014,09,15,00,25,13.40
2014,09,15,00,26,13.40
2014,09,15,00,27,13.40
2014,09,15,00,28,13.50
2014,09,15,00,29,13.50
2014,09,15,00,30,13.50
2014,09,15,00,31,13.50
2014,09,15,00,32,13.50
2014,09,15,00,33,13.50
2014,09,15,00,34,13.50
2014,09,15,00,35,13.50
2014,09,15,00,36,13.50
2014,09,15,00,37,13.50
2014,09,15,00,38,13.50
2014,09,15,00,39,13.50
2014,09,15,00,40,13.50
2014,09,15,00,41,13.60
2014,09,15,00,42,13.60
2014,09,15,00,43,13.60
2014,09,15,00,44,13.60
2014,09,15,00,45,13.60
2014,09,15,00,46,13.60
2014,09,15,00,47,13.60
2014,09,15,00,48,13.60
2014,09,15,00,49,13.60
2014,09,15,00,50,13.60
2014,09,15,00,51,13.60
2014,09,15,00,52,13.60
2014,09,15,00,53,13.60
2014,09,15,00,54,13.60
2014,09,15,00,55,13.60
2014,09,15,00,56,13.60
2014,09,15,00,57,13.50
2014,09,15,00,58,13.50
2014,09,15,00,59,13.50
2014,09,15,01,00,13.50
2014,09,15,01,01,13.50
2014,09,15,01,02,13.50
2014,09,15,01,03,13.50
2014,09,15,01,04,13.50
2014,09,15,01,05,13.50
2014,09,15,01,06,13.50
2014,09,15,01,07,13.50
2014,09,15,01,08,13.50
2014,09,15,01,09,13.50
2014,09,15,01,10,13.40
2014,09,15,01,11,13.40
2014,09,15,01,12,13.40
2014,09,15,01,13,13.40
2014,09,15,01,14,13.50
2014,09,15,01,15,13.50
2014,09,15,01,16,13.50
2014,09,15,01,17,13.50
2014,09,15,01,18,13.50
2014,09,15,01,19,13.50
2014,09,15,01,20,13.50
2014,09,15,01,21,13.50
2014,09,15,01,22,13.60
2014,09,15,01,23,13.60
2014,09,15,01,24,13.60
2014,09,15,01,25,13.60
2014,09,15,01,26,13.60
2014,09,15,01,27,13.60
2014,09,15,01,28,13.60
2014,09,15,01,29,13.60
2014,09,15,01,30,13.60
2014,09,15,01,31,13.70
2014,09,15,01,32,13.70
2014,09,15,01,33,13.70
2014,09,15,01,34,13.70
2014,09,15,01,35,13.70
2014,09,15,01,36,13.70
2014,09,15,01,37,13.70
2014,09,15,01,38,13.70
2014,09,15,01,39,13.70
2014,09,15,01,40,13.60
2014,09,15,01,41,13.60
2014,09,15,01,42,13.60
2014,09,15,01,43,13.60
2014,09,15,01,44,13.60
2014,09,15,01,45,13.50
2014,09,15,01,46,13.50
2014,09,15,01,47,13.50
2014,09,15,01,48,13.50
2014,09,15,01,49,13.50
2014,09,15,01,50,13.50
2014,09,15,01,51,13.50
2014,09,15,01,52,13.50
2014,09,15,01,53,13.50
2014,09,15,01,54,13.50
2014,09,15,01,55,13.50
2014,09,15,01,56,13.60
2014,09,15,01,57,13.60
2014,09,15,01,58,13.60
2014,09,15,01,59,13.60
2014,09,15,02,00,13.60
2014,09,15,02,01,13.70
2014,09,15,02,02,13.70
2014,09,15,02,03,13.70
2014,09,15,02,04,13.70
2014,09,15,02,05,13.70
2014,09,15,02,06,13.80
2014,09,15,02,07,13.80
2014,09,15,02,08,13.80
2014,09,15,02,09,13.80
2014,09,15,02,10,13.80
2014,09,15,02,11,13.80
2014,09,15,02,12,13.90
2014,09,15,02,13,13.90
2014,09,15,02,14,13.90
2014,09,15,02,15,13.90
2014,09,15,02,16,13.90
2014,09,15,02,17,13.90
2014,09,15,02,18,13.90
2014,09,15,02,19,13.90
2014,09,15,02,20,13.90
2014,09,15,02,21,13.90
2014,09,15,02,22,13.90
2014,09,15,02,23,13.90
2014,09,15,02,24,13.90
2014,09,15,02,25,13.90
2014,09,15,02,26,13.90
2014,09,15,02,27,13.90
2014,09,15,02,28,13.90
2014,09,15,02,29,13.80
2014,09,15,02,30,13.80
2014,09,15,02,31,13.80
2014,09,15,02,32,13.80
2014,09,15,02,33,13.80
2014,09,15,02,34,13.70
2014,09,15,02,35,13.70
2014,09,15,02,36,13.70
2014,09,15,02,37,13.70
2014,09,15,02,38,13.70
2014,09,15,02,39,13.60
2014,09,15,02,40,13.60
2014,09,15,02,41,13.60
2014,09,15,02,42,13.60
2014,09,15,02,43,13.60
2014,09,15,02,44,13.60
2014,09,15,02,45,13.60
2014,09,15,02,46,13.60
2014,09,15,02,47,13.60
2014,09,15,02,48,13.50
2014,09,15,02,49,13.50
2014,09,15,02,50,13.50
2014,09,15,02,51,13.50
2014,09,15,02,52,13.40
2014,09,15,02,53,13.40
2014,09,15,02,54,13.40
2014,09,15,02,55,13.30
2014,09,15,02,56,13.30
2014,09,15,02,57,13.20
2014,09,15,02,58,13.20
2014,09,15,02,59,13.20
2014,09,15,03,00,13.10
2014,09,15,03,01,13.00
2014,09,15,03,02,13.00
2014,09,15,03,03,13.00
2014,09,15,03,04,12.90
2014,09,15,03,05,12.90
2014,09,15,03,06,12.90
2014,09,15,03,07,12.80
2014,09,15,03,08,12.80
2014,09,15,03,09,12.80
2014,09,15,03,10,12.70
2014,09,15,03,11,12.70
2014,09,15,03,12,12.70
2014,09,15,03,13,12.60
2014,09,15,03,14,12.60
2014,09,15,03,15,12.60
2014,09,15,03,16,12.50
2014,09,15,03,17,12.50
2014,09,15,03,18,12.50
2014,09,15,03,19,12.50
2014,09,15,03,20,12.40
2014,09,15,03,21,12.40
2014,09,15,03,22,12.40
2014,09,15,03,23,12.40
2014,09,15,03,24,12.40
2014,09,15,03,25,12.40
2014,09,15,03,26,12.40
2014,09,15,03,27,12.40
2014,09,15,03,28,12.30
2014,09,15,03,29,12.30
2014,09,15,03,30,12.30
2014,09,15,03,31,12.30
2014,09,15,03,32,12.30
2014,09,15,03,33,12.30
2014,09,15,03,34,12.30
2014,09,15,03,35,12.20
2014,09,15,03,36,12.20
2014,09,15,03,37,12.20
2014,09,15,03,38,12.10
2014,09,15,03,39,12.10
2014,09,15,03,40,12.10
2014,09,15,03,41,12.00
2014,09,15,03,42,12.00
2014,09,15,03,43,12.00
2014,09,15,03,44,11.90
2014,09,15,03,45,11.90
2014,09,15,03,46,11.90
2014,09,15,03,47,11.90
2014,09,15,03,48,11.80
2014,09,15,03,49,11.80
2014,09,15,03,50,11.80
2014,09,15,03,51,11.80
2014,09,15,03,52,11.70
2014,09,15,03,53,11.70
2014,09,15,03,54,11.70
2014,09,15,03,55,11.70
2014,09,15,03,56,11.70
2014,09,15,03,57,11.60
2014,09,15,03,58,11.60
2014,09,15,03,59,11.60
2014,09,15,04,00,11.60
2014,09,15,04,01,11.50
2014,09,15,04,02,11.50
2014,09,15,04,03,11.50
2014,09,15,04,04,11.40
2014,09,15,04,05,11.40
2014,09,15,04,06,11.40
2014,09,15,04,07,11.40
2014,09,15,04,08,11.40
2014,09,15,04,09,11.50
2014,09,15,04,10,11.50
2014,09,15,04,11,11.50
2014,09,15,04,12,11.50
2014,09,15,04,13,11.60
2014,09,15,04,14,11.60
2014,09,15,04,15,11.60
2014,09,15,04,16,11.60
2014,09,15,04,17,11.60
2014,09,15,04,18,11.60
2014,09,15,04,19,11.60
2014,09,15,04,20,11.60
2014,09,15,04,21,11.60
2014,09,15,04,22,11.60
2014,09,15,04,23,11.60
2014,09,15,04,24,11.60
2014,09,15,04,25,11.50
2014,09,15,04,26,11.50
2014,09,15,04,27,11.50
2014,09,15,04,28,11.40
2014,09,15,04,29,11.40
2014,09,15,04,30,11.40
2014,09,15,04,31,11.30
2014,09,15,04,32,11.30
2014,09,15,04,33,11.30
2014,09,15,04,34,11.30
2014,09,15,04,35,11.30
2014,09,15,04,36,11.30
2014,09,15,04,37,11.30
2014,09,15,04,38,11.30
2014,09,15,04,39,11.30
2014,09,15,04,40,11.30
2014,09,15,04,41,11.30
2014,09,15,04,42,11.30
2014,09,15,04,43,11.20
2014,09,15,04,44,11.20
2014,09,15,04,45,11.20
2014,09,15,04,46,11.20
2014,09,15,04,47,11.20
2014,09,15,04,48,11.20
2014,09,15,04,49,11.20
2014,09,15,04,50,11.20
2014,09,15,04,51,11.20
2014,09,15,04,52,11.20
2014,09,15,04,53,11.10
2014,09,15,04,54,11.10
2014,09,15,04,55,11.10
2014,09,15,04,56,11.10
2014,09,15,04,57,11.10
2014,09,15,04,58,11.10
2014,09,15,04,59,11.10
2014,09,15,05,00,11.10
2014,09,15,05,01,11.10
2014,09,15,05,02,11.10
2014,09,15,05,03,11.10
2014,09,15,05,04,11.10
2014,09,15,05,05,11.10
2014,09,15,05,06,11.00
2014,09,15,05,07,11.00
2014,09,15,05,08,11.00
2014,09,15,05,09,11.00
2014,09,15,05,10,11.00
2014,09,15,05,11,11.00
2014,09,15,05,12,11.00
2014,09,15,05,13,11.00
2014,09,15,05,14,11.00
2014,09,15,05,15,11.00
2014,09,15,05,16,11.00
2014,09,15,05,17,11.00
2014,09,15,05,18,11.00
2014,09,15,05,19,11.00
2014,09,15,05,20,11.00
2014,09,15,05,21,11.00
2014,09,15,05,22,11.00
2014,09,15,05,23,11.00
2014,09,15,05,24,11.00
2014,09,15,05,25,11.00
2014,09,15,05,26,10.90
2014,09,15,05,27,10.90
2014,09,15,05,28,10.90
2014,09,15,05,29,10.90
2014,09,15,05,30,10.90
2014,09,15,05,31,10.90
2014,09,15,05,32,10.90
2014,09,15,05,33,10.90
2014,09,15,05,34,10.80
2014,09,15,05,35,10.80
2014,09,15,05,36,10.80
2014,09,15,05,37,10.80
2014,09,15,05,38,10.80
2014,09,15,05,39,10.70
2014,09,15,05,40,10.70
2014,09,15,05,41,10.70
2014,09,15,05,42,10.70
2014,09,15,05,43,10.70
2014,09,15,05,44,10.70
2014,09,15,05,45,10.70
2014,09,15,05,46,10.70
2014,09,15,05,47,10.70
2014,09,15,05,48,10.70
2014,09,15,05,49,10.70
2014,09,15,05,50,10.70
2014,09,15,05,51,10.70
2014,09,15,05,52,10.70
2014,09,15,05,53,10.70
2014,09,15,05,54,10.60
2014,09,15,05,55,10.60
2014,09,15,05,56,10.60
2014,09,15,05,57,10.60
2014,09,15,05,58,10.60
2014,09,15,05,59,10.50
2014,09,15,06,00,10.50
2014,09,15,06,01,10.50
2014,09,15,06,02,10.50
2014,09,15,06,03,10.40
2014,09,15,06,04,10.40
2014,09,15,06,05,10.40
2014,09,15,06,06,10.40
2014,09,15,06,07,10.40
2014,09,15,06,08,10.30
2014,09,15,06,09,10.30
2014,09,15,06,10,10.30
2014,09,15,06,11,10.30
2014,09,15,06,12,10.30
2014,09,15,06,13,10.30
2014,09,15,06,14,10.30
2014,09,15,06,15,10.30
2014,09,15,06,16,10.30
2014,09,15,06,17,10.30
2014,09,15,06,18,10.30
2014,09,15,06,19,10.30
2014,09,15,06,20,10.30
2014,09,15,06,21,10.30
2014,09,15,06,22,10.30
2014,09,15,06,23,10.30
2014,09,15,06,24,10.30
2014,09,15,06,25,10.30
2014,09,15,06,26,10.30
2014,09,15,06,27,10.30
2014,09,15,06,28,10.30
2014,09,15,06,29,10.30
2014,09,15,06,30,10.30
2014,09,15,06,31,10.30
2014,09,15,06,32,10.30
2014,09,15,06,33,10.30
2014,09,15,06,34,10.30
2014,09,15,06,35,10.30
2014,09,15,06,36,10.30
2014,09,15,06,37,10.30
2014,09,15,06,38,10.30
2014,09,15,06,39,10.30
2014,09,15,06,40,10.30
2014,09,15,06,41,10.30
2014,09,15,06,42,10.30
2014,09,15,06,43,10.30
2014,09,15,06,44,10.30
2014,09,15,06,45,10.30
2014,09,15,06,46,10.30
2014,09,15,06,47,10.30
2014,09,15,06,48,10.30
2014,09,15,06,49,10.30
2014,09,15,06,50,10.30
2014,09,15,06,51,10.30
2014,09,15,06,52,10.30
2014,09,15,06,53,10.30
2014,09,15,06,54,10.30
2014,09,15,06,55,10.30
2014,09,15,06,56,10.30
2014,09,15,06,57,10.30
2014,09,15,06,58,10.30
2014,09,15,06,59,10.30
2014,09,15,07,00,10.40
2014,09,15,07,01,10.40
2014,09,15,07,02,10.40
2014,09,15,07,03,10.40
2014,09,15,07,04,10.50
2014,09,15,07,05,10.50
2014,09,15,07,06,10.60
2014,09,15,07,07,10.60
2014,09,15,07,08,10.70
2014,09,15,07,09,10.70
2014,09,15,07,10,10.80
2014,09,15,07,11,10.80
2014,09,15,07,12,10.90
2014,09,15,07,13,10.90
2014,09,15,07,14,10.90
2014,09,15,07,15,11.00
2014,09,15,07,16,11.00
2014,09,15,07,17,11.10
2014,09,15,07,18,11.10
2014,09,15,07,19,11.20
2014,09,15,07,20,11.20
2014,09,15,07,21,11.20
2014,09,15,07,22,11.30
2014,09,15,07,23,11.30
2014,09,15,07,24,11.40
2014,09,15,07,25,11.40
2014,09,15,07,26,11.50
2014,09,15,07,27,11.50
2014,09,15,07,28,11.60
2014,09,15,07,29,11.60
2014,09,15,07,30,11.70
2014,09,15,07,31,11.80
2014,09,15,07,32,11.80
2014,09,15,07,33,11.90
2014,09,15,07,34,12.00
2014,09,15,07,35,12.00
2014,09,15,07,36,12.10
2014,09,15,07,37,12.10
2014,09,15,07,38,12.10
2014,09,15,07,39,12.10
2014,09,15,07,40,12.20
2014,09,15,07,41,12.20
2014,09,15,07,42,12.20
2014,09,15,07,43,12.20
2014,09,15,07,44,12.20
2014,09,15,07,45,12.30
2014,09,15,07,46,12.40
2014,09,15,07,47,12.40
2014,09,15,07,48,12.40
2014,09,15,07,49,12.40
2014,09,15,07,50,12.40
2014,09,15,07,51,12.40
2014,09,15,07,52,12.40
2014,09,15,07,53,12.40
2014,09,15,07,54,12.50
2014,09,15,07,55,12.50
2014,09,15,07,56,12.50
2014,09,15,07,57,12.50
2014,09,15,07,58,12.60
2014,09,15,07,59,12.60
2014,09,15,08,00,12.70
2014,09,15,08,01,12.70
2014,09,15,08,02,12.80
2014,09,15,08,03,12.80
2014,09,15,08,04,12.90
2014,09,15,08,05,13.00
2014,09,15,08,06,13.00
2014,09,15,08,07,13.10
2014,09,15,08,08,13.20
2014,09,15,08,09,13.30
2014,09,15,08,10,13.40
2014,09,15,08,11,13.40
2014,09,15,08,12,13.50
2014,09,15,08,13,13.60
2014,09,15,08,14,13.60
2014,09,15,08,15,13.70
2014,09,15,08,16,13.80
2014,09,15,08,17,13.90
2014,09,15,08,18,14.00
2014,09,15,08,19,14.10
2014,09,15,08,20,14.20
2014,09,15,08,21,14.30
2014,09,15,08,22,14.40
2014,09,15,08,23,14.50
2014,09,15,08,24,14.60
2014,09,15,08,25,14.70
2014,09,15,08,26,14.80
2014,09,15,08,27,14.90
2014,09,15,08,28,15.00
2014,09,15,08,29,15.20
2014,09,15,08,30,15.30
2014,09,15,08,31,15.40
2014,09,15,08,32,15.50
2014,09,15,08,33,15.70
2014,09,15,08,34,15.80
2014,09,15,08,35,15.90
2014,09,15,08,36,16.00
2014,09,15,08,37,16.10
2014,09,15,08,38,16.20
2014,09,15,08,39,16.40
2014,09,15,08,40,16.50
2014,09,15,08,41,16.60
2014,09,15,08,42,16.70
2014,09,15,08,43,16.80
2014,09,15,08,44,16.90
2014,09,15,08,45,17.10
2014,09,15,08,46,17.20
2014,09,15,08,47,17.30
2014,09,15,08,48,17.40
2014,09,15,08,49,17.50
2014,09,15,08,50,17.60
2014,09,15,08,51,17.70
2014,09,15,08,52,17.80
2014,09,15,08,53,17.90
2014,09,15,08,54,18.00
2014,09,15,08,55,18.00
2014,09,15,08,56,18.10
2014,09,15,08,57,18.20
2014,09,15,08,58,18.30
2014,09,15,08,59,18.30
2014,09,15,09,00,18.40
2014,09,15,09,01,18.50
2014,09,15,09,02,18.60
2014,09,15,09,03,18.60
2014,09,15,09,04,18.70
2014,09,15,09,05,18.70
2014,09,15,09,06,18.80
2014,09,15,09,07,18.80
2014,09,15,09,08,18.90
2014,09,15,09,09,19.00
2014,09,15,09,10,19.10
2014,09,15,09,11,19.10
2014,09,15,09,12,19.20
2014,09,15,09,13,19.20
2014,09,15,09,14,19.30
2014,09,15,09,15,19.30
2014,09,15,09,16,19.40
2014,09,15,09,17,19.40
2014,09,15,09,18,19.50
2014,09,15,09,19,19.50
2014,09,15,09,20,19.60
2014,09,15,09,21,19.60
2014,09,15,09,22,19.70
2014,09,15,09,23,19.70
2014,09,15,09,24,19.80
2014,09,15,09,25,19.80
2014,09,15,09,26,19.80
2014,09,15,09,27,19.90
2014,09,15,09,28,20.00
2014,09,15,09,29,20.00
2014,09,15,09,30,20.10
2014,09,15,09,31,20.10
2014,09,15,09,32,20.20
2014,09,15,09,33,20.20
2014,09,15,09,34,20.30
2014,09,15,09,35,20.30
2014,09,15,09,36,20.30
2014,09,15,09,37,20.30
2014,09,15,09,38,20.30
2014,09,15,09,39,20.30
2014,09,15,09,40,20.40
2014,09,15,09,41,20.40
2014,09,15,09,42,20.40
2014,09,15,09,43,20.50
2014,09,15,09,44,20.50
2014,09,15,09,45,20.50
2014,09,15,09,46,20.50
2014,09,15,09,47,20.50
2014,09,15,09,48,20.50
2014,09,15,09,49,20.50
2014,09,15,09,50,20.50
2014,09,15,09,51,20.50
2014,09,15,09,52,20.60
2014,09,15,09,53,20.60
2014,09,15,09,54,20.60
2014,09,15,09,55,20.60
2014,09,15,09,56,20.60
2014,09,15,09,57,20.70
2014,09,15,09,58,20.70
2014,09,15,09,59,20.70
2014,09,15,10,00,20.70
2014,09,15,10,01,20.70
2014,09,15,10,02,20.80
2014,09,15,10,03,20.80
2014,09,15,10,04,20.80
2014,09,15,10,05,20.80
2014,09,15,10,06,20.90
2014,09,15,10,07,20.90
2014,09,15,10,08,20.90
2014,09,15,10,09,21.00
2014,09,15,10,10,21.00
2014,09,15,10,11,21.00
2014,09,15,10,12,21.10
2014,09,15,10,13,21.10
2014,09,15,10,14,21.10
2014,09,15,10,15,21.10
2014,09,15,10,16,21.10
2014,09,15,10,17,21.10
2014,09,15,10,18,21.10
2014,09,15,10,19,21.10
2014,09,15,10,20,21.10
2014,09,15,10,21,21.20
2014,09,15,10,22,21.20
2014,09,15,10,23,21.20
2014,09,15,10,24,21.20
2014,09,15,10,25,21.20
2014,09,15,10,26,21.30
2014,09,15,10,27,21.30
2014,09,15,10,28,21.30
2014,09,15,10,29,21.30
2014,09,15,10,30,21.40
2014,09,15,10,31,21.40
2014,09,15,10,32,21.40
2014,09,15,10,33,21.40
2014,09,15,10,34,21.40
2014,09,15,10,35,21.40
2014,09,15,10,36,21.40
2014,09,15,10,37,21.40
2014,09,15,10,38,21.50
2014,09,15,10,39,21.50
2014,09,15,10,40,21.60
2014,09,15,10,41,21.60
2014,09,15,10,42,21.60
2014,09,15,10,43,21.60
2014,09,15,10,44,21.70
2014,09,15,10,45,21.70
2014,09,15,10,46,21.70
2014,09,15,10,47,21.80
2014,09,15,10,48,21.80
2014,09,15,10,49,21.80
2014,09,15,10,50,21.90
2014,09,15,10,51,21.90
2014,09,15,10,52,22.00
2014,09,15,10,53,22.10
2014,09,15,10,54,22.10
2014,09,15,10,55,22.20
2014,09,15,10,56,22.20
2014,09,15,10,57,22.20
2014,09,15,10,58,22.30
2014,09,15,10,59,22.30
2014,09,15,11,00,22.40
2014,09,15,11,01,22.40
2014,09,15,11,02,22.50
2014,09,15,11,03,22.50
2014,09,15,11,04,22.60
2014,09,15,11,05,22.60
2014,09,15,11,06,22.70
2014,09,15,11,07,22.70
2014,09,15,11,08,22.70
2014,09,15,11,09,22.80
2014,09,15,11,10,22.80
2014,09,15,11,11,22.80
2014,09,15,11,12,22.80
2014,09,15,11,13,22.90
2014,09,15,11,14,22.90
2014,09,15,11,15,22.90
2014,09,15,11,16,23.00
2014,09,15,11,17,23.00
2014,09,15,11,18,23.00
2014,09,15,11,19,23.10
2014,09,15,11,20,23.10
2014,09,15,11,21,23.10
2014,09,15,11,22,23.10
2014,09,15,11,23,23.20
2014,09,15,11,24,23.20
2014,09,15,11,25,23.30
2014,09,15,11,26,23.30
2014,09,15,11,27,23.40
2014,09,15,11,28,23.50
2014,09,15,11,29,23.50
2014,09,15,11,30,23.60
2014,09,15,11,31,23.60
2014,09,15,11,32,23.70
2014,09,15,11,33,23.70
2014,09,15,11,34,23.70
2014,09,15,11,35,23.80
2014,09,15,11,36,23.80
2014,09,15,11,37,23.90
2014,09,15,11,38,23.90
2014,09,15,11,39,23.90
2014,09,15,11,40,24.00
2014,09,15,11,41,24.00
2014,09,15,11,42,23.90
2014,09,15,11,43,23.90
2014,09,15,11,44,23.90
2014,09,15,11,45,23.90
2014,09,15,11,46,23.90
2014,09,15,11,47,23.90
2014,09,15,11,48,23.90
2014,09,15,11,49,23.90
2014,09,15,11,50,23.90
2014,09,15,11,51,23.90
2014,09,15,11,52,23.90
2014,09,15,11,53,23.90
2014,09,15,11,54,23.90
2014,09,15,11,55,23.90
2014,09,15,11,56,23.90
2014,09,15,11,57,23.90
2014,09,15,11,58,23.90
2014,09,15,11,59,23.80
2014,09,15,12,00,23.80
2014,09,15,12,01,23.80
2014,09,15,12,02,23.80
2014,09,15,12,03,23.80
2014,09,15,12,04,23.90
2014,09,15,12,05,23.90
2014,09,15,12,06,23.90
2014,09,15,12,07,24.00
2014,09,15,12,08,24.00
2014,09,15,12,09,24.10
2014,09,15,12,10,24.10
2014,09,15,12,11,24.20
2014,09,15,12,12,24.20
2014,09,15,12,13,24.30
2014,09,15,12,14,24.30
2014,09,15,12,15,24.40
2014,09,15,12,16,24.40
2014,09,15,12,17,24.40
2014,09,15,12,18,24.50
2014,09,15,12,19,24.50
2014,09,15,12,20,24.60
2014,09,15,12,21,24.60
2014,09,15,12,22,24.60
2014,09,15,12,23,24.70
2014,09,15,12,24,24.70
2014,09,15,12,25,24.70
2014,09,15,12,26,24.70
2014,09,15,12,27,24.70
2014,09,15,12,28,24.70
2014,09,15,12,29,24.70
2014,09,15,12,30,24.80
2014,09,15,12,31,24.80
2014,09,15,12,32,24.80
2014,09,15,12,33,24.90
2014,09,15,12,34,24.90
2014,09,15,12,35,24.90
2014,09,15,12,36,24.90
2014,09,15,12,37,25.00
2014,09,15,12,38,25.00
2014,09,15,12,39,25.00
2014,09,15,12,40,25.00
2014,09,15,12,41,25.00
2014,09,15,12,42,25.10
2014,09,15,12,43,25.10
2014,09,15,12,44,25.20
2014,09,15,12,45,25.20
2014,09,15,12,46,25.30
2014,09,15,12,47,25.30
2014,09,15,12,48,25.40
2014,09,15,12,49,25.40
2014,09,15,12,50,25.50
2014,09,15,12,51,25.50
2014,09,15,12,52,25.60
2014,09,15,12,53,25.60
2014,09,15,12,54,25.60
2014,09,15,12,55,25.60
2014,09,15,12,56,25.60
2014,09,15,12,57,25.60
2014,09,15,12,58,25.70
2014,09,15,12,59,25.70
2014,09,15,13,00,25.70
2014,09,15,13,01,25.70
2014,09,15,13,02,25.70
2014,09,15,13,03,25.70
2014,09,15,13,04,25.70
2014,09,15,13,05,25.70
2014,09,15,13,06,25.70
2014,09,15,13,07,25.80
2014,09,15,13,08,25.80
2014,09,15,13,09,25.80
2014,09,15,13,10,25.90
2014,09,15,13,11,25.90
2014,09,15,13,12,25.90
2014,09,15,13,13,25.90
2014,09,15,13,14,25.90
2014,09,15,13,15,25.90
2014,09,15,13,16,26.00
2014,09,15,13,17,26.00
2014,09,15,13,18,26.00
2014,09,15,13,19,26.10
2014,09,15,13,20,26.10
2014,09,15,13,21,26.10
2014,09,15,13,22,26.10
2014,09,15,13,23,26.20
2014,09,15,13,24,26.20
2014,09,15,13,25,26.20
2014,09,15,13,26,26.20
2014,09,15,13,27,26.30
2014,09,15,13,28,26.30
2014,09,15,13,29,26.30
2014,09,15,13,30,26.30
2014,09,15,13,31,26.30
2014,09,15,13,32,26.30
2014,09,15,13,33,26.30
2014,09,15,13,34,26.20
2014,09,15,13,35,26.20
2014,09,15,13,36,26.20
2014,09,15,13,37,26.20
2014,09,15,13,38,26.20
2014,09,15,13,39,26.20
2014,09,15,13,40,26.20
2014,09,15,13,41,26.20
2014,09,15,13,42,26.20
2014,09,15,13,43,26.20
2014,09,15,13,44,26.20
2014,09,15,13,45,26.20
2014,09,15,13,46,26.20
2014,09,15,13,47,26.20
2014,09,15,13,48,26.20
2014,09,15,13,49,26.20
2014,09,15,13,50,26.30
2014,09,15,13,51,26.20
2014,09,15,13,52,26.30
2014,09,15,13,53,26.30
2014,09,15,13,54,26.30
2014,09,15,13,55,26.30
2014,09,15,13,56,26.40
2014,09,15,13,57,26.40
2014,09,15,13,58,26.40
2014,09,15,13,59,26.50
2014,09,15,14,00,26.50
2014,09,15,14,01,26.50
2014,09,15,14,02,26.50
2014,09,15,14,03,26.50
2014,09,15,14,04,26.50
2014,09,15,14,05,26.60
2014,09,15,14,06,26.60
2014,09,15,14,07,26.60
2014,09,15,14,08,26.60
2014,09,15,14,09,26.60
2014,09,15,14,10,26.60
2014,09,15,14,11,26.70
2014,09,15,14,12,26.70
2014,09,15,14,13,26.70
2014,09,15,14,14,26.80
2014,09,15,14,15,26.90
2014,09,15,14,16,26.90
2014,09,15,14,17,27.00
2014,09,15,14,18,27.10
2014,09,15,14,19,27.10
2014,09,15,14,20,27.10
2014,09,15,14,21,27.20
2014,09,15,14,22,27.20
2014,09,15,14,23,27.20
2014,09,15,14,24,27.20
2014,09,15,14,25,27.20
2014,09,15,14,26,27.20
2014,09,15,14,27,27.20
2014,09,15,14,28,27.20
2014,09,15,14,29,27.30
2014,09,15,14,30,27.30
2014,09,15,14,31,27.30
2014,09,15,14,32,27.30
2014,09,15,14,33,27.20
2014,09,15,14,34,27.20
2014,09,15,14,35,27.20
2014,09,15,14,36,27.20
2014,09,15,14,37,27.20
2014,09,15,14,38,27.20
2014,09,15,14,39,27.20
2014,09,15,14,40,27.20
2014,09,15,14,41,27.30
2014,09,15,14,42,27.30
2014,09,15,14,43,27.40
2014,09,15,14,44,27.40
2014,09,15,14,45,27.40
2014,09,15,14,46,27.40
2014,09,15,14,47,27.50
2014,09,15,14,48,27.50
2014,09,15,14,49,27.50
2014,09,15,14,50,27.60
2014,09,15,14,51,27.60
2014,09,15,14,52,27.70
2014,09,15,14,53,27.70
2014,09,15,14,54,27.70
2014,09,15,14,55,27.80
2014,09,15,14,56,27.80
2014,09,15,14,57,27.80
2014,09,15,14,58,27.80
2014,09,15,14,59,27.90
2014,09,15,15,00,27.90
2014,09,15,15,01,27.90
2014,09,15,15,02,28.00
2014,09,15,15,03,28.00
2014,09,15,15,04,28.10
2014,09,15,15,05,28.10
2014,09,15,15,06,28.10
2014,09,15,15,07,28.20
2014,09,15,15,08,28.20
2014,09,15,15,09,28.20
2014,09,15,15,10,28.30
2014,09,15,15,11,28.30
2014,09,15,15,12,28.30
2014,09,15,15,13,28.30
2014,09,15,15,14,28.30
2014,09,15,15,15,28.30
2014,09,15,15,16,28.30
2014,09,15,15,17,28.10
2014,09,15,15,18,28.10
2014,09,15,15,19,27.90
2014,09,15,15,20,27.80
2014,09,15,15,21,27.60
2014,09,15,15,22,27.40
2014,09,15,15,23,27.20
2014,09,15,15,24,27.00
2014,09,15,15,25,26.80
2014,09,15,15,26,26.60
2014,09,15,15,27,26.40
2014,09,15,15,28,26.30
2014,09,15,15,29,26.10
2014,09,15,15,30,26.00
2014,09,15,15,31,25.80
2014,09,15,15,32,25.70
2014,09,15,15,33,25.60
2014,09,15,15,34,25.40
2014,09,15,15,35,25.30
2014,09,15,15,36,25.20
2014,09,15,15,37,25.00
2014,09,15,15,38,24.90
2014,09,15,15,39,24.70
2014,09,15,15,40,24.50
2014,09,15,15,41,24.40
2014,09,15,15,42,24.30
2014,09,15,15,43,24.10
2014,09,15,15,44,24.00
2014,09,15,15,45,23.90
2014,09,15,15,46,23.80
2014,09,15,15,47,23.60
2014,09,15,15,48,23.50
2014,09,15,15,49,23.30
2014,09,15,15,50,23.20
2014,09,15,15,51,23.10
2014,09,15,15,52,23.00
2014,09,15,15,53,22.90
2014,09,15,15,54,22.80
2014,09,15,15,55,22.80
2014,09,15,15,56,22.70
2014,09,15,15,57,22.70
2014,09,15,15,58,22.60
2014,09,15,15,59,22.60
2014,09,15,16,00,22.50
2014,09,15,16,01,22.50
2014,09,15,16,02,22.40
2014,09,15,16,03,22.40
2014,09,15,16,04,22.30
2014,09,15,16,05,22.20
2014,09,15,16,06,22.10
2014,09,15,16,07,22.10
2014,09,15,16,08,22.10
2014,09,15,16,09,22.00
2014,09,15,16,10,22.00
2014,09,15,16,11,22.00
2014,09,15,16,12,22.00
2014,09,15,16,13,22.00
2014,09,15,16,14,22.00
2014,09,15,16,15,22.00
2014,09,15,16,16,22.10
2014,09,15,16,17,22.10
2014,09,15,16,18,22.10
2014,09,15,16,19,22.20
2014,09,15,16,20,22.20
2014,09,15,16,21,22.30
2014,09,15,16,22,22.30
2014,09,15,16,23,22.40
2014,09,15,16,24,22.50
2014,09,15,16,25,22.60
2014,09,15,16,26,22.60
2014,09,15,16,27,22.70
2014,09,15,16,28,22.70
2014,09,15,16,29,22.80
2014,09,15,16,30,22.80
2014,09,15,16,31,22.80
2014,09,15,16,32,22.80
2014,09,15,16,33,22.80
2014,09,15,16,34,22.70
2014,09,15,16,35,22.70
2014,09,15,16,36,22.60
2014,09,15,16,37,22.60
2014,09,15,16,38,22.60
2014,09,15,16,39,22.50
2014,09,15,16,40,22.50
2014,09,15,16,41,22.50
2014,09,15,16,42,22.50
2014,09,15,16,43,22.50
2014,09,15,16,44,22.50
2014,09,15,16,45,22.60
2014,09,15,16,46,22.50
2014,09,15,16,47,22.50
2014,09,15,16,48,22.50
2014,09,15,16,49,22.50
2014,09,15,16,50,22.50
2014,09,15,16,51,22.50
2014,09,15,16,52,22.50
2014,09,15,16,53,22.50
2014,09,15,16,54,22.40
2014,09,15,16,55,22.40
2014,09,15,16,56,22.40
2014,09,15,16,57,22.40
2014,09,15,16,58,22.30
2014,09,15,16,59,22.30
2014,09,15,17,00,22.30
2014,09,15,17,01,22.30
2014,09,15,17,02,22.30
2014,09,15,17,03,22.30
2014,09,15,17,04,22.20
2014,09,15,17,05,22.20
2014,09,15,17,06,22.20
2014,09,15,17,07,22.20
2014,09,15,17,08,22.20
2014,09,15,17,09,22.20
2014,09,15,17,10,22.20
2014,09,15,17,11,22.30
2014,09,15,17,12,22.30
2014,09,15,17,13,22.30
2014,09,15,17,14,22.30
2014,09,15,17,15,22.30
2014,09,15,17,16,22.30
2014,09,15,17,17,22.30
2014,09,15,17,18,22.30
2014,09,15,17,19,22.30